Location: Burla
(50.9568°N, 10.4983°E)
Time: 18:14:37
(UTC+00:00)

COSMOS 2406 - Pass Details

Date: 18 January 2026
Orbit: 843 x 861 km, 71.0° (Epoch: 16 February)

Event Time Altitude Azimuth Distance (km) Brightness Sun altitude
Exits shadow 04:15:51 22° 352° (N) 1,804 4.8 -27.1°
Maximum altitude 04:19:04 40° 49° (NE) 1,252 4.4 -26.6°
Drops below altitude 10° 04:24:27 10° 118° (ESE) 2,494 6.5 -25.8°
Sets 04:27:03 0° 126° (SE) 3,428 7.2 -25.4°
